QPF
0.00 0.00 0.00 0.00 0.00 0.00 0.00 0.00 0.00 0.00 0.00 0.00 0.00 0.00 0.00 0.00 0.00 0.00 0.00 0.00 0.00 0.00 0.01 0.01 0.00 0.00 0.00 0.00 0.00 0.00 0.00 0.00 0.00 0.00 0.00 0.00 0.00 0.00 0.00 0.00 0.00 0.00 0.02 0.03 0.00 0.00 0.00 0.09 0.02
0.00 0.00 0.00 0.00 0.00 0.00 0.00 0.00 0.00 0.00 0.00 0.00 0.00 0.00 0.00 0.00 0.00 0.00 0.00 0.00 0.00 0.00 0.00 0.00 0.00 0.00 0.00 0.00 0.00 0.00 0.00 0.00 0.00 0.00 0.00 0.00 0.00 0.00 0.00 0.00 0.00 0.01 0.01 0.00 0.00 0.00 0.00 0.01 0.00
0.00 0.00 0.00 0.00 0.00 0.00 0.00 0.00 0.00 0.00 0.00 0.00 0.00 0.00 0.00 0.00 0.00 0.00 0.00 0.00 0.00 0.00 0.00 0.00 0.00 0.00 0.00 0.00 0.00 0.00 0.00 0.00 0.00 0.00 0.00 0.00 0.00 0.00 0.00 0.00 0.00 0.01 0.03 0.00 0.00 0.00 0.00 0.00 0.00
0.00 0.00 0.00 0.00 0.00 0.00 0.00 0.00 0.00 0.00 0.00 0.00 0.00 0.00 0.00 0.00 0.00 0.00 0.00 0.00 0.00 0.00 0.00 0.00 0.00 0.00 0.00 0.00 0.00 0.00 0.00 0.00 0.00 0.00 0.00 0.00 0.00 0.00 0.00 0.00 0.00 0.00 0.02 0.00 0.00 0.00 0.00 0.00 0.00
0.00 0.00 0.00 0.00 0.00 0.00 0.00 0.00 0.00 0.00 0.00 0.00 0.00 0.00 0.00 0.00 0.00 0.00 0.00 0.00 0.00 0.00 0.00 0.00 0.00 0.00 0.00 0.00 0.00 0.00 0.00 0.00 0.00 0.00 0.00 0.00 0.00 0.00 0.00 0.00 0.00 0.00 0.03 0.07 0.00 0.00 0.00 0.00 0.00
0.00 0.00 0.00 0.00 0.00 0.00 0.00 0.00 0.00 0.00 0.00 0.00 0.00 0.00 0.00 0.00 0.00 0.00 0.00 0.00 0.00 0.00 0.00 0.00 0.00 0.00 0.00 0.00 0.00 0.00 0.00 0.00 0.00 0.00 0.00 0.00 0.00 0.01 0.00 0.00 0.00 0.00 0.00 0.03 0.01 0.00 0.00 0.00 0.01
0.00 0.00 0.00 0.00 0.00 0.00 0.00 0.00 0.00 0.00 0.00 0.00 0.00 0.00 0.00 0.00 0.00 0.00 0.00 0.00 0.00 0.00 0.00 0.00 0.00 0.00 0.00 0.00 0.00 0.00 0.00 0.00 0.00 0.00 0.00 0.00 0.00 0.03 0.01 0.00 0.00 0.00 0.00 0.01 0.06 0.05 0.00 0.00 0.00
0.00 0.00 0.00 0.00 0.00 0.00 0.00 0.00 0.00 0.00 0.00 0.00 0.00 0.00 0.00 0.00 0.00 0.00 0.00 0.00 0.00 0.00 0.00 0.00 0.00 0.00 0.00 0.00 0.00 0.00 0.00 0.00 0.00 0.00 0.00 0.00 0.00 0.00 0.02 0.03 0.00 0.00 0.01 0.00 0.00 0.06 0.02 0.00 0.00
0.00 0.00 0.00 0.00 0.00 0.00 0.00 0.00 0.00 0.00 0.00 0.00 0.00 0.00 0.00 0.00 0.00 0.00 0.00 0.00 0.00 0.00 0.00 0.00 0.00 0.00 0.00 0.00 0.00 0.00 0.00 0.00 0.00 0.00 0.00 0.00 0.00 0.00 0.09 0.07 0.00 0.00 0.02 0.01 0.00 0.00 0.02 0.00 0.00
0.00 0.00 0.00 0.00 0.00 0.00 0.00 0.00 0.00 0.00 0.00 0.00 0.00 0.00 0.00 0.00 0.00 0.00 0.00 0.00 0.00 0.00 0.00 0.00 0.00 0.00 0.00 0.00 0.00 0.00 0.00 0.00 0.00 0.00 0.02 0.05 0.00 0.02 0.05 0.02 0.00 0.00 0.01 0.02 0.05 0.01 0.02 0.00 0.00
0.00 0.00 0.00 0.00 0.00 0.00 0.00 0.00 0.00 0.00 0.00 0.00 0.00 0.00 0.00 0.00 0.00 0.00 0.00 0.00 0.00 0.00 0.00 0.00 0.00 0.00 0.00 0.00 0.00 0.00 0.00 0.00 0.00 0.00 0.00 0.00 0.00 0.01 0.01 0.00 0.00 0.00 0.00 0.07 0.10 0.08 0.00 0.00 0.00
0.00 0.00 0.00 0.00 0.00 0.00 0.00 0.00 0.00 0.00 0.00 0.00 0.00 0.00 0.00 0.00 0.00 0.00 0.00 0.00 0.00 0.00 0.00 0.00 0.00 0.00 0.00 0.00 0.00 0.00 0.00 0.00 0.00 0.00 0.00 0.00 0.00 0.00 0.00 0.00 0.00 0.00 0.00 0.00 0.00 0.01 0.00 0.00 0.00
0.00 0.00 0.00 0.00 0.00 0.00 0.00 0.00 0.00 0.00 0.00 0.00 0.00 0.00 0.00 0.00 0.00 0.00 0.00 0.00 0.00 0.00 0.00 0.00 0.00 0.00 0.00 0.00 0.00 0.00 0.00 0.00 0.00 0.00 0.00 0.00 0.00 0.00 0.00 0.00 0.00 0.00 0.00 0.00 0.00 0.00 0.00 0.00 0.00
0.00 0.00 0.00 0.00 0.00 0.00 0.00 0.00 0.00 0.00 0.00 0.00 0.00 0.00 0.00 0.00 0.00 0.00 0.00 0.00 0.00 0.00 0.00 0.00 0.00 0.00 0.00 0.00 0.00 0.00 0.00 0.02 0.00 0.00 0.00 0.00 0.00 0.00 0.00 0.00 0.00 0.00 0.00 0.00 0.00 0.00 0.00 0.00 0.00
0.00 0.00 0.00 0.00 0.00 0.00 0.00 0.00 0.00 0.00 0.00 0.00 0.00 0.00 0.00 0.00 0.00 0.00 0.00 0.00 0.00 0.00 0.00 0.00 0.00 0.00 0.00 0.00 0.00 0.00 0.03 0.05 0.02 0.08 0.01 0.00 0.00 0.01 0.01 0.00 0.00 0.00 0.00 0.00 0.01 0.00 0.00 0.01 0.02
0.00 0.00 0.00 0.00 0.00 0.00 0.00 0.00 0.00 0.00 0.00 0.00 0.00 0.00 0.00 0.00 0.00 0.00 0.00 0.00 0.00 0.00 0.00 0.00 0.00 0.00 0.00 0.00 0.00 0.00 0.00 0.01 0.04 0.14 0.09 0.00 0.00 0.00 0.00 0.00 0.00 0.01 0.05 0.01 0.01 0.03 0.00 0.05 0.08
0.00 0.00 0.00 0.00 0.00 0.00 0.00 0.00 0.00 0.00 0.00 0.00 0.00 0.00 0.00 0.00 0.00 0.00 0.00 0.00 0.00 0.00 0.00 0.00 0.00 0.00 0.00 0.00 0.00 0.00 0.00 0.00 0.00 0.02 0.01 0.00 0.00 0.00 0.00 0.00 0.00 0.00 0.00 0.00 0.00 0.01 0.00 0.02 0.02
0.00 0.00 0.00 0.00 0.00 0.00 0.00 0.00 0.00 0.00 0.00 0.00 0.00 0.00 0.00 0.00 0.00 0.00 0.00 0.00 0.00 0.00 0.00 0.00 0.00 0.00 0.00 0.00 0.00 0.00 0.00 0.00 0.00 0.00 0.00 0.00 0.00 0.00 0.00 0.00 0.00 0.00 0.00 0.00 0.00 0.00 0.00 0.02 0.01
0.00 0.00 0.00 0.00 0.00 0.00 0.00 0.00 0.00 0.00 0.00 0.00 0.00 0.00 0.00 0.00 0.00 0.00 0.00 0.00 0.00 0.00 0.00 0.00 0.00 0.00 0.00 0.00 0.00 0.00 0.00 0.02 0.03 0.02 0.01 0.00 0.00 0.00 0.00 0.00 0.00 0.00 0.01 0.01 0.00 0.02 0.02 0.00 0.00
0.00 0.00 0.00 0.00 0.00 0.00 0.00 0.00 0.00 0.00 0.00 0.00 0.00 0.00 0.00 0.00 0.00 0.00 0.00 0.00 0.00 0.00 0.00 0.00 0.00 0.00 0.00 0.00 0.00 0.00 0.00 0.00 0.01 0.02 0.02 0.00 0.00 0.00 0.00 0.00 0.00 0.00 0.00 0.00 0.00 0.00 0.00 0.02 0.01
0.00 0.00 0.00 0.00 0.00 0.00 0.00 0.00 0.00 0.00 0.00 0.00 0.00 0.00 0.00 0.00 0.00 0.00 0.00 0.00 0.00 0.00 0.00 0.00 0.00 0.00 0.00 0.00 0.00 0.00 0.00 0.00 0.00 0.00 0.01 0.00 0.02 0.00 0.00 0.00 0.00 0.00 0.00 0.00 0.00 0.00 0.00 0.00 0.00
0.00 0.00 0.00 0.00 0.00 0.00 0.00 0.00 0.00 0.00 0.00 0.00 0.00 0.00 0.00 0.00 0.00 0.00 0.00 0.00 0.00 0.00 0.00 0.00 0.00 0.00 0.00 0.00 0.00 0.00 0.00 0.00 0.00 0.00 0.00 0.01 0.12 0.05 0.00 0.00 0.00 0.00 0.01 0.01 0.01 0.00 0.01 0.00 0.00
0.00 0.00 0.00 0.00 0.00 0.00 0.00 0.00 0.00 0.00 0.00 0.00 0.00 0.00 0.00 0.00 0.00 0.00 0.00 0.00 0.00 0.00 0.00 0.00 0.00 0.00 0.00 0.00 0.00 0.00 0.00 0.00 0.00 0.00 0.00 0.01 0.04 0.04 0.01 0.00 0.02 0.02 0.02 0.02 0.03 0.00 0.01 0.01 0.00
0.00 0.00 0.00 0.00 0.00 0.00 0.00 0.00 0.00 0.00 0.00 0.00 0.00 0.00 0.00 0.00 0.00 0.00 0.00 0.00 0.00 0.00 0.00 0.00 0.00 0.00 0.00 0.00 0.00 0.00 0.00 0.00 0.00 0.00 0.00 0.01 0.00 0.01 0.00 0.00 0.05 0.09 0.05 0.02 0.01 0.01 0.00 0.02 0.00
0.00 0.00 0.00 0.00 0.00 0.00 0.00 0.00 0.00 0.00 0.00 0.00 0.00 0.00 0.00 0.00 0.00 0.00 0.00 0.00 0.00 0.00 0.00 0.00 0.00 0.01 0.00 0.00 0.00 0.00 0.00 0.00 0.00 0.00 0.00 0.00 0.00 0.00 0.00 0.00 0.02 0.08 0.06 0.01 0.01 0.02 0.00 0.00 0.00
0.00 0.00 0.00 0.00 0.00 0.00 0.00 0.00 0.00 0.00 0.00 0.00 0.00 0.00 0.00 0.00 0.00 0.00 0.00 0.00 0.00 0.00 0.00 0.00 0.00 0.00 0.01 0.00 0.00 0.00 0.00 0.00 0.00 0.00 0.00 0.00 0.00 0.00 0.06 0.05 0.01 0.05 0.08 0.04 0.01 0.01 0.00 0.00 0.00
0.00 0.00 0.00 0.00 0.00 0.00 0.00 0.00 0.00 0.00 0.00 0.00 0.00 0.00 0.00 0.00 0.00 0.00 0.00 0.00 0.00 0.00 0.00 0.01 0.00 0.00 0.00 0.01 0.00 0.00 0.00 0.00 0.00 0.05 0.00 0.00 0.00 0.00 0.06 0.09 0.04 0.04 0.02 0.01 0.04 0.05 0.01 0.01 0.00
0.00 0.00 0.00 0.00 0.00 0.00 0.00 0.00 0.00 0.00 0.00 0.00 0.00 0.00 0.00 0.00 0.00 0.00 0.00 0.00 0.00 0.00 0.00 0.07 0.05 0.00 0.00 0.00 0.00 0.00 0.00 0.00 0.00 0.04 0.01 0.00 0.00 0.00 0.00 0.01 0.01 0.01 0.05 0.03 0.07 0.11 0.15 0.13 0.07
0.00 0.00 0.00 0.00 0.00 0.00 0.00 0.00 0.00 0.00 0.00 0.00 0.00 0.00 0.00 0.00 0.00 0.00 0.00 0.00 0.01 0.01 0.01 0.04 0.08 0.02 0.00 0.00 0.00 0.00 0.00 0.00 0.00 0.00 0.00 0.00 0.00 0.00 0.00 0.00 0.00 0.00 0.01 0.01 0.13 0.16 0.14 0.06 0.03
0.00 0.00 0.00 0.00 0.00 0.00 0.00 0.00 0.00 0.00 0.00 0.00 0.00 0.00 0.00 0.00 0.00 0.00 0.00 0.00 0.01 0.00 0.00 0.01 0.04 0.00 0.00 0.00 0.00 0.00 0.00 0.00 0.00 0.00 0.00 0.00 0.00 0.00 0.00 0.00 0.01 0.04 0.08 0.07 0.09 0.02 0.05 0.06 0.05
MSLP
1006.49 1006.83 1007.13 1007.53 1008.79 1009.78 1010.94 1011.43 1011.22 1011.42 1011.45 1011.32 1011.70 1012.01 1012.77 1013.66 1014.43 1015.79 1015.61 1015.84 1015.85 1016.18 1016.23 1016.30 1016.48 1016.63 1016.83 1017.03 1017.17 1017.32 1017.36 1017.60 1017.73 1017.75 1017.87 1017.73 1017.76 1017.86 1017.78 1017.89 1017.95 1017.96 1018.22 1018.31 1018.36 1018.49 1018.70 1018.72 1018.74
1006.53 1006.69 1007.10 1007.99 1009.61 1010.64 1011.15 1011.13 1011.27 1011.08 1011.15 1011.37 1011.89 1012.27 1012.83 1014.17 1014.71 1015.38 1015.74 1015.92 1015.90 1016.25 1016.37 1016.50 1016.74 1017.02 1017.19 1017.22 1017.41 1017.57 1017.72 1017.87 1017.96 1018.11 1018.16 1018.07 1018.09 1018.07 1018.04 1017.95 1018.20 1018.23 1018.43 1018.48 1018.64 1018.74 1018.82 1018.98 1019.12
1006.51 1006.41 1007.41 1008.76 1010.20 1010.83 1010.93 1010.90 1011.06 1011.10 1011.23 1011.51 1012.31 1012.73 1013.36 1014.58 1015.03 1015.34 1015.49 1015.97 1016.23 1016.57 1016.68 1016.84 1016.99 1017.21 1017.45 1017.54 1017.63 1017.71 1017.97 1018.21 1018.15 1018.23 1018.31 1018.34 1018.31 1018.31 1018.23 1018.21 1018.35 1018.47 1018.68 1018.74 1018.85 1019.01 1019.13 1019.31 1019.48
1006.71 1007.11 1008.45 1009.27 1010.24 1010.36 1010.35 1010.57 1010.81 1011.20 1011.56 1011.85 1012.51 1013.60 1014.18 1014.63 1015.07 1015.34 1015.88 1016.03 1016.60 1016.81 1017.03 1017.24 1017.22 1017.43 1017.64 1017.81 1017.91 1017.97 1018.06 1018.29 1018.28 1018.43 1018.43 1018.48 1018.53 1018.52 1018.49 1018.58 1018.51 1018.71 1018.85 1018.90 1018.96 1019.23 1019.41 1019.52 1019.73
1006.85 1007.87 1009.19 1009.95 1010.19 1010.08 1010.19 1010.30 1010.66 1011.21 1011.69 1012.28 1012.65 1014.38 1015.21 1015.29 1015.15 1015.63 1016.21 1016.48 1016.75 1017.09 1017.22 1017.39 1017.43 1017.66 1017.90 1018.05 1018.13 1018.19 1018.23 1018.33 1018.43 1018.52 1018.62 1018.57 1018.55 1018.63 1018.69 1018.78 1018.76 1018.86 1019.11 1019.17 1019.21 1019.35 1019.60 1019.69 1019.89
1007.56 1008.43 1009.83 1010.33 1010.38 1010.25 1010.22 1010.36 1010.79 1011.36 1011.96 1012.67 1013.46 1014.48 1015.73 1015.67 1015.71 1016.18 1016.41 1016.56 1016.72 1017.12 1017.27 1017.45 1017.43 1017.71 1017.90 1018.10 1018.17 1018.36 1018.41 1018.39 1018.57 1018.63 1018.73 1018.71 1018.64 1018.65 1018.69 1018.70 1018.80 1018.93 1019.07 1019.27 1019.47 1019.63 1019.78 1019.95 1019.98
1007.70 1008.67 1009.78 1010.08 1010.31 1010.21 1010.29 1010.39 1010.83 1011.53 1011.89 1012.60 1013.19 1014.71 1016.02 1016.09 1016.12 1016.36 1016.61 1016.75 1016.75 1017.05 1017.40 1017.49 1017.49 1017.65 1017.82 1018.08 1018.13 1018.35 1018.43 1018.52 1018.64 1018.73 1018.69 1018.77 1018.78 1018.80 1018.73 1018.74 1018.80 1018.91 1019.09 1019.17 1019.44 1019.69 1019.88 1020.17 1020.30
1007.35 1008.31 1009.48 1009.70 1009.92 1010.07 1010.11 1010.43 1010.94 1011.33 1012.09 1012.46 1012.83 1014.63 1015.89 1015.91 1016.04 1016.49 1016.85 1017.11 1017.23 1017.23 1017.37 1017.59 1017.69 1017.81 1017.96 1018.18 1018.16 1018.39 1018.43 1018.51 1018.68 1018.78 1018.76 1018.72 1018.79 1018.81 1018.84 1018.90 1018.87 1018.88 1019.11 1019.23 1019.37 1019.69 1019.96 1020.19 1020.45
1006.93 1008.18 1009.01 1009.01 1009.27 1009.59 1009.86 1010.40 1010.99 1011.18 1011.89 1012.41 1013.03 1013.88 1014.70 1015.73 1016.29 1016.82 1017.23 1017.48 1017.57 1017.67 1017.72 1017.64 1017.69 1017.88 1018.06 1018.21 1018.26 1018.34 1018.43 1018.47 1018.51 1018.59 1018.79 1018.74 1018.95 1019.02 1019.03 1019.13 1019.07 1019.03 1019.14 1019.35 1019.43 1019.67 1019.93 1020.24 1020.42
1007.01 1007.99 1007.79 1007.57 1008.02 1008.73 1009.48 1010.01 1010.72 1011.36 1011.96 1012.89 1013.54 1014.25 1015.01 1015.85 1016.49 1016.97 1017.32 1017.46 1017.58 1017.72 1017.80 1017.73 1017.74 1017.86 1018.20 1018.17 1018.33 1018.47 1018.54 1018.58 1018.63 1018.70 1018.86 1018.82 1018.99 1019.00 1019.04 1019.04 1019.14 1019.23 1019.32 1019.33 1019.56 1019.69 1019.93 1020.21 1020.61
1006.79 1007.01 1006.98 1007.11 1007.41 1008.01 1009.11 1009.93 1010.50 1011.20 1012.08 1012.32 1013.26 1014.24 1015.19 1015.87 1016.45 1016.88 1017.15 1017.20 1017.22 1017.53 1017.73 1017.67 1017.62 1017.79 1018.23 1018.25 1018.39 1018.55 1018.73 1018.79 1018.71 1018.74 1018.83 1018.96 1019.01 1019.23 1019.13 1019.22 1019.35 1019.53 1019.47 1019.73 1019.76 1020.01 1020.08 1020.44 1020.74
1006.63 1006.53 1006.74 1006.84 1007.45 1008.29 1009.16 1009.81 1010.51 1011.02 1011.28 1011.79 1012.93 1013.81 1014.76 1015.59 1016.03 1016.29 1016.61 1016.89 1017.16 1017.33 1017.36 1017.41 1017.39 1017.69 1018.02 1018.19 1018.36 1018.51 1018.69 1018.70 1018.63 1018.70 1018.88 1019.04 1019.10 1019.34 1019.31 1019.27 1019.41 1019.63 1019.69 1019.88 1020.07 1020.26 1020.36 1020.49 1020.73
1006.82 1006.67 1006.56 1006.76 1007.45 1008.22 1008.86 1009.76 1010.51 1011.14 1011.23 1011.96 1013.10 1014.28 1014.99 1015.39 1015.76 1016.03 1016.30 1016.54 1016.84 1017.01 1017.04 1017.11 1017.22 1017.48 1017.71 1018.11 1018.28 1018.44 1018.53 1018.59 1018.55 1018.63 1018.87 1018.88 1019.26 1019.32 1019.44 1019.33 1019.39 1019.62 1019.69 1019.77 1020.00 1020.23 1020.39 1020.59 1020.69
1006.97 1006.94 1006.85 1007.03 1007.58 1008.19 1008.93 1009.98 1010.40 1011.54 1011.66 1012.25 1013.26 1014.15 1014.85 1015.27 1015.44 1015.91 1016.19 1016.41 1016.55 1016.61 1016.63 1016.81 1017.05 1017.26 1017.61 1017.93 1018.22 1018.35 1018.38 1018.46 1018.41 1018.46 1018.67 1018.71 1019.08 1019.28 1019.39 1019.42 1019.36 1019.38 1019.51 1019.65 1019.85 1020.02 1020.24 1020.47 1020.56
1007.21 1007.27 1007.23 1007.53 1007.76 1008.41 1009.01 1010.19 1010.41 1010.97 1011.69 1012.37 1013.21 1013.97 1014.57 1014.96 1015.31 1015.35 1015.59 1015.89 1016.07 1016.21 1016.33 1016.47 1016.68 1016.98 1017.36 1017.72 1018.04 1018.11 1018.30 1018.44 1018.37 1018.32 1018.34 1018.56 1018.82 1019.02 1019.09 1019.16 1019.27 1019.21 1019.28 1019.55 1019.84 1020.08 1020.21 1020.39 1020.57
1007.89 1007.88 1007.89 1007.73 1007.70 1008.31 1008.67 1009.89 1010.57 1010.80 1011.41 1012.33 1012.94 1013.63 1014.25 1014.67 1014.69 1015.01 1015.23 1015.55 1015.81 1016.05 1016.22 1016.41 1016.73 1016.88 1017.23 1017.50 1017.70 1017.73 1017.98 1018.17 1018.31 1018.42 1018.31 1018.34 1018.61 1018.75 1018.90 1019.00 1019.17 1019.08 1019.31 1019.48 1019.91 1020.08 1020.33 1020.59 1020.70
1008.58 1008.39 1008.28 1007.96 1007.75 1008.02 1008.65 1009.89 1010.63 1011.15 1011.69 1012.20 1012.59 1012.95 1013.43 1013.91 1014.33 1014.50 1014.61 1014.92 1015.19 1015.55 1015.99 1016.41 1016.64 1016.72 1017.04 1017.23 1017.47 1017.47 1017.63 1017.84 1018.03 1018.22 1018.28 1018.14 1018.38 1018.56 1018.63 1018.79 1018.92 1019.00 1019.15 1019.31 1019.66 1020.19 1020.26 1020.55 1020.88
1008.75 1008.73 1008.52 1008.25 1008.05 1008.26 1008.97 1009.77 1010.47 1011.12 1011.72 1012.06 1012.48 1012.81 1013.12 1013.41 1013.38 1013.57 1013.95 1014.31 1014.69 1015.09 1015.52 1015.92 1016.38 1016.75 1016.97 1017.25 1017.37 1017.60 1017.91 1017.93 1017.99 1017.96 1018.19 1018.33 1018.51 1018.43 1018.56 1018.63 1018.76 1018.88 1019.06 1019.47 1019.60 1020.03 1020.41 1020.63 1021.03
1008.41 1008.62 1008.40 1008.02 1007.83 1008.41 1008.92 1009.41 1010.23 1010.90 1011.58 1012.20 1012.49 1012.78 1012.88 1012.84 1012.33 1013.04 1013.43 1013.88 1014.30 1014.65 1015.13 1015.48 1016.05 1016.48 1016.85 1017.30 1017.56 1017.84 1018.01 1017.91 1018.10 1017.95 1017.99 1018.15 1018.47 1018.57 1018.67 1018.72 1018.67 1018.79 1019.07 1019.36 1019.72 1020.33 1020.58 1020.88 1021.15
1008.30 1008.51 1008.41 1007.97 1007.95 1008.34 1008.87 1009.10 1009.80 1010.25 1010.53 1011.05 1011.72 1012.02 1012.07 1012.20 1012.38 1012.48 1012.85 1013.21 1013.64 1014.13 1014.69 1015.27 1015.76 1016.21 1016.58 1016.85 1017.05 1017.18 1017.48 1017.59 1017.83 1017.72 1017.78 1018.01 1018.41 1018.42 1018.47 1018.59 1018.73 1018.84 1019.13 1019.33 1019.63 1019.98 1020.80 1021.18 1021.33
1008.30 1008.43 1008.31 1008.41 1008.38 1008.72 1009.15 1009.30 1009.61 1009.90 1010.26 1010.63 1010.76 1010.88 1011.31 1011.51 1011.72 1012.23 1012.37 1012.44 1012.86 1013.37 1013.74 1014.34 1015.12 1015.76 1016.18 1016.54 1016.93 1017.21 1017.53 1017.52 1017.65 1017.81 1017.80 1017.70 1017.91 1018.07 1018.33 1018.57 1018.71 1018.98 1019.06 1019.49 1019.59 1019.92 1020.40 1020.96 1021.37
1008.26 1007.55 1008.02 1008.49 1009.22 1009.74 1009.73 1009.95 1009.49 1009.30 1009.48 1009.65 1009.59 1009.80 1010.08 1010.32 1010.67 1011.21 1011.86 1012.20 1012.46 1012.60 1013.07 1013.70 1014.55 1015.28 1015.76 1016.23 1016.67 1016.80 1016.98 1017.41 1017.24 1017.27 1017.44 1017.63 1017.81 1017.97 1018.04 1018.33 1018.55 1018.86 1019.13 1019.35 1019.53 1019.71 1020.10 1020.50 1020.90
1007.83 1007.83 1008.50 1009.31 1010.16 1010.43 1010.22 1010.73 1008.89 1008.98 1009.21 1008.56 1008.30 1008.36 1008.75 1008.91 1009.68 1010.41 1011.00 1011.14 1011.29 1012.14 1012.69 1013.39 1014.21 1014.93 1015.45 1015.97 1016.29 1016.73 1016.87 1017.06 1017.11 1017.28 1017.39 1017.56 1017.59 1017.74 1017.78 1018.09 1018.37 1018.55 1018.73 1019.03 1019.37 1019.57 1019.91 1020.15 1020.47
1007.75 1008.75 1009.70 1010.58 1011.15 1011.66 1010.56 1010.85 1008.63 1008.35 1007.01 1006.65 1006.93 1006.98 1007.35 1008.01 1008.82 1009.45 1009.98 1010.65 1011.40 1011.79 1012.49 1013.31 1014.06 1014.59 1015.16 1015.62 1016.03 1016.49 1016.88 1016.99 1017.12 1017.15 1017.19 1017.38 1017.51 1017.65 1017.71 1018.04 1018.12 1018.16 1018.49 1018.80 1018.92 1019.25 1019.66 1019.90 1020.05
1008.00 1009.62 1011.45 1012.39 1012.69 1011.97 1011.00 1010.62 1008.06 1006.08 1005.61 1005.18 1005.36 1005.55 1006.03 1006.72 1007.96 1008.93 1009.85 1010.44 1010.98 1011.48 1012.03 1012.98 1013.73 1014.38 1014.87 1015.32 1015.81 1016.22 1016.58 1016.88 1016.99 1017.07 1017.23 1017.46 1017.56 1017.47 1017.59 1017.80 1018.01 1018.14 1018.33 1018.40 1018.64 1019.10 1019.35 1019.70 1020.07
1008.01 1009.04 1010.65 1012.23 1013.09 1012.05 1011.53 1009.89 1006.65 1005.17 1004.58 1004.17 1003.91 1004.30 1005.23 1006.09 1007.19 1008.16 1008.75 1009.50 1010.12 1010.91 1011.70 1012.55 1013.41 1014.25 1014.79 1015.05 1015.39 1015.94 1016.55 1016.84 1016.88 1016.91 1017.09 1017.20 1017.26 1017.28 1017.42 1017.69 1017.64 1018.03 1018.27 1018.21 1018.52 1019.03 1019.25 1019.47 1019.75
1007.87 1009.05 1009.63 1011.37 1012.64 1012.57 1011.11 1008.87 1005.99 1005.04 1004.78 1004.23 1003.95 1004.38 1004.99 1005.84 1006.62 1007.31 1008.14 1008.87 1009.56 1010.39 1011.18 1012.19 1013.19 1013.73 1014.26 1014.59 1014.96 1015.35 1015.83 1016.31 1016.76 1016.74 1016.87 1017.05 1017.05 1017.03 1017.41 1017.51 1017.64 1017.54 1017.98 1017.99 1018.43 1018.94 1018.99 1019.14 1019.39
1006.35 1007.69 1009.63 1011.14 1012.50 1012.45 1010.90 1009.11 1007.06 1005.28 1004.93 1004.53 1004.54 1004.33 1004.68 1005.31 1006.10 1006.88 1007.46 1008.24 1008.63 1009.69 1011.72 1013.03 1013.65 1014.11 1014.25 1014.34 1014.65 1015.04 1015.42 1015.83 1016.17 1016.65 1016.84 1016.81 1017.03 1016.81 1016.97 1017.09 1017.25 1017.62 1017.83 1017.86 1018.05 1018.44 1018.47 1018.69 1018.85
1006.84 1007.71 1009.30 1010.74 1011.65 1011.86 1010.86 1008.62 1005.51 1004.59 1004.53 1004.46 1004.21 1004.15 1004.40 1004.98 1005.48 1006.19 1006.63 1007.65 1008.92 1010.21 1011.40 1012.16 1012.74 1013.51 1014.05 1014.77 1015.21 1015.01 1015.25 1015.43 1015.70 1016.04 1016.34 1016.52 1016.57 1016.53 1016.61 1016.83 1016.95 1017.33 1017.54 1017.68 1017.89 1018.00 1018.15 1018.29 1018.13
1005.83 1006.85 1008.35 1010.47 1011.51 1011.40 1010.16 1006.74 1004.59 1004.16 1004.07 1003.84 1003.75 1004.06 1004.13 1004.45 1004.96 1005.55 1006.69 1007.65 1008.67 1009.65 1010.51 1010.98 1011.32 1011.19 1012.75 1013.87 1014.43 1015.04 1015.30 1015.12 1015.56 1015.65 1016.01 1016.40 1016.47 1016.49 1016.54 1016.77 1016.85 1017.08 1017.42 1017.52 1017.49 1017.65 1017.76 1017.53 1017.28
Thickness
5833 5829 5824 5810 5768 5757 5739 5745 5763 5750 5753 5768 5769 5765 5759 5755 5749 5732 5760 5761 5764 5763 5763 5764 5762 5761 5762 5761 5759 5756 5758 5754 5752 5752 5749 5752 5750 5750 5750 5749 5747 5745 5741 5740 5738 5738 5737 5736 5737
5835 5833 5820 5795 5754 5733 5734 5757 5749 5760 5765 5770 5768 5765 5759 5744 5757 5752 5755 5762 5763 5764 5765 5763 5762 5760 5760 5759 5760 5757 5756 5754 5754 5752 5751 5751 5750 5750 5751 5752 5748 5746 5743 5741 5739 5738 5739 5738 5736
5838 5837 5806 5777 5751 5735 5737 5761 5758 5764 5770 5768 5759 5765 5759 5745 5755 5755 5764 5764 5765 5764 5765 5762 5763 5761 5760 5760 5760 5759 5757 5753 5754 5752 5752 5752 5752 5751 5752 5753 5750 5746 5744 5743 5741 5739 5739 5739 5737
5830 5822 5802 5769 5759 5767 5766 5767 5770 5765 5767 5770 5764 5748 5758 5762 5758 5762 5762 5763 5764 5764 5764 5763 5764 5763 5761 5760 5760 5760 5759 5756 5755 5752 5754 5754 5754 5753 5753 5754 5753 5749 5746 5745 5744 5740 5739 5740 5738
5829 5809 5775 5766 5769 5778 5778 5780 5777 5768 5767 5764 5765 5742 5740 5756 5764 5763 5760 5762 5762 5762 5763 5764 5764 5763 5761 5759 5759 5759 5759 5759 5758 5756 5755 5756 5757 5756 5754 5755 5755 5752 5747 5747 5745 5743 5741 5741 5741
5807 5803 5763 5752 5767 5779 5783 5787 5780 5770 5770 5765 5757 5747 5741 5757 5758 5757 5759 5762 5763 5763 5764 5765 5766 5764 5763 5761 5761 5760 5761 5762 5760 5759 5758 5758 5759 5759 5757 5758 5757 5755 5752 5749 5746 5743 5742 5741 5743
5805 5790 5769 5769 5766 5775 5780 5791 5779 5771 5770 5766 5770 5743 5744 5753 5761 5763 5763 5765 5764 5764 5765 5767 5768 5767 5765 5763 5764 5763 5764 5764 5762 5761 5761 5761 5760 5759 5760 5761 5759 5758 5755 5753 5750 5747 5744 5742 5741
5818 5803 5779 5779 5769 5771 5789 5790 5788 5780 5770 5785 5780 5745 5743 5760 5768 5766 5765 5765 5764 5765 5767 5768 5769 5768 5766 5764 5764 5763 5765 5766 5764 5763 5762 5763 5762 5761 5760 5761 5761 5761 5759 5756 5753 5750 5747 5744 5743
5832 5785 5770 5780 5778 5781 5796 5785 5793 5796 5783 5785 5784 5774 5773 5770 5770 5765 5762 5762 5763 5765 5767 5769 5771 5771 5769 5767 5766 5765 5766 5768 5768 5766 5764 5764 5763 5763 5762 5760 5761 5761 5761 5758 5756 5754 5750 5747 5746
5815 5786 5794 5811 5806 5795 5798 5795 5790 5784 5781 5776 5776 5780 5779 5773 5768 5763 5760 5759 5763 5764 5766 5769 5773 5773 5770 5769 5768 5767 5767 5769 5769 5768 5766 5765 5764 5764 5763 5763 5762 5762 5761 5761 5759 5756 5754 5750 5748
5821 5802 5818 5818 5817 5815 5802 5797 5801 5786 5775 5786 5778 5776 5777 5774 5770 5767 5766 5766 5765 5769 5770 5773 5775 5774 5771 5770 5770 5768 5768 5769 5771 5769 5768 5766 5765 5764 5764 5763 5762 5761 5761 5760 5760 5757 5756 5753 5750
5817 5827 5824 5824 5820 5813 5800 5804 5792 5794 5794 5801 5793 5789 5783 5776 5775 5775 5774 5773 5772 5772 5775 5778 5778 5777 5773 5771 5771 5770 5769 5770 5772 5770 5769 5768 5766 5765 5763 5764 5763 5760 5761 5759 5757 5756 5756 5755 5752
5822 5826 5833 5831 5825 5818 5816 5801 5797 5794 5804 5804 5794 5786 5780 5778 5778 5779 5780 5782 5780 5778 5780 5781 5779 5777 5776 5773 5771 5771 5771 5771 5772 5772 5769 5768 5767 5767 5764 5765 5764 5763 5762 5761 5759 5757 5756 5755 5754
5828 5829 5830 5832 5827 5823 5809 5802 5803 5796 5803 5798 5790 5782 5780 5778 5779 5778 5778 5779 5780 5784 5785 5786 5782 5779 5777 5775 5773 5772 5772 5771 5772 5773 5770 5768 5767 5766 5766 5765 5764 5765 5764 5762 5760 5759 5757 5756 5755
5830 5821 5826 5826 5826 5817 5818 5796 5799 5808 5804 5796 5791 5785 5781 5781 5780 5780 5783 5782 5784 5786 5790 5788 5786 5782 5780 5778 5775 5773 5771 5771 5772 5773 5773 5770 5767 5767 5768 5767 5765 5766 5766 5763 5760 5759 5757 5755 5753
5814 5813 5796 5825 5828 5823 5818 5785 5802 5813 5807 5797 5795 5790 5784 5782 5784 5785 5787 5786 5786 5786 5786 5787 5787 5785 5782 5779 5778 5777 5775 5773 5772 5770 5773 5771 5769 5770 5768 5768 5766 5767 5766 5764 5760 5758 5757 5755 5753
5798 5788 5798 5810 5831 5825 5818 5793 5804 5810 5807 5801 5800 5798 5794 5790 5788 5789 5791 5791 5790 5788 5786 5783 5783 5784 5782 5780 5778 5778 5777 5775 5774 5772 5772 5772 5771 5771 5772 5770 5767 5767 5766 5765 5762 5756 5757 5756 5753
5788 5792 5795 5797 5819 5822 5809 5803 5808 5810 5805 5803 5801 5799 5796 5793 5794 5797 5795 5796 5793 5791 5789 5785 5782 5782 5781 5778 5779 5777 5774 5774 5774 5774 5772 5770 5769 5771 5772 5772 5769 5766 5765 5762 5760 5755 5755 5755 5752
5805 5798 5799 5813 5826 5818 5812 5810 5807 5811 5807 5800 5798 5795 5795 5795 5806 5803 5801 5800 5798 5796 5792 5787 5783 5782 5781 5777 5777 5775 5773 5774 5773 5774 5774 5773 5771 5772 5772 5773 5770 5767 5764 5759 5756 5752 5750 5750 5749
5809 5801 5801 5818 5825 5820 5811 5815 5814 5815 5815 5811 5804 5800 5801 5802 5802 5805 5805 5807 5804 5800 5795 5789 5786 5784 5783 5781 5781 5781 5778 5776 5775 5776 5776 5775 5774 5774 5774 5772 5769 5766 5762 5758 5754 5753 5747 5745 5747
5803 5800 5802 5807 5818 5819 5813 5806 5810 5818 5819 5816 5816 5816 5811 5807 5806 5805 5808 5812 5811 5807 5802 5796 5790 5787 5787 5784 5782 5779 5776 5777 5776 5776 5777 5778 5777 5777 5775 5771 5768 5763 5761 5757 5754 5752 5750 5745 5746
5792 5819 5821 5814 5796 5776 5809 5772 5805 5814 5817 5818 5821 5821 5819 5819 5818 5816 5810 5808 5808 5809 5809 5803 5797 5791 5789 5786 5782 5781 5779 5775 5780 5781 5780 5779 5777 5778 5778 5773 5769 5765 5763 5761 5757 5756 5755 5752 5748
5804 5819 5815 5810 5786 5787 5795 5778 5806 5810 5804 5818 5826 5830 5830 5833 5827 5820 5817 5818 5820 5815 5810 5805 5801 5795 5792 5788 5785 5782 5780 5781 5781 5781 5781 5780 5779 5778 5778 5775 5771 5769 5767 5765 5761 5761 5759 5758 5756
5817 5802 5792 5784 5776 5756 5788 5780 5800 5802 5824 5837 5839 5841 5841 5839 5834 5830 5829 5824 5817 5817 5812 5804 5800 5798 5793 5790 5787 5783 5780 5780 5779 5780 5781 5780 5779 5778 5777 5774 5774 5773 5771 5770 5767 5766 5763 5761 5761
5801 5779 5734 5744 5742 5750 5776 5780 5808 5842 5848 5852 5850 5851 5851 5850 5840 5831 5823 5820 5817 5816 5814 5808 5803 5797 5796 5792 5787 5785 5782 5781 5780 5780 5778 5777 5777 5778 5777 5776 5776 5775 5773 5773 5771 5767 5764 5762 5759
5792 5785 5747 5732 5729 5757 5764 5769 5814 5854 5860 5864 5870 5867 5860 5853 5844 5837 5834 5829 5825 5820 5816 5811 5804 5797 5795 5793 5790 5785 5779 5778 5779 5779 5777 5777 5778 5779 5777 5777 5779 5777 5774 5775 5772 5768 5765 5764 5761
5789 5776 5792 5749 5741 5742 5758 5791 5836 5851 5852 5862 5863 5862 5857 5853 5847 5843 5838 5835 5830 5824 5819 5812 5804 5800 5797 5796 5793 5790 5786 5780 5776 5778 5778 5777 5778 5780 5777 5777 5779 5779 5776 5775 5772 5768 5768 5767 5764
5807 5804 5771 5750 5743 5742 5751 5769 5789 5835 5842 5853 5854 5857 5859 5859 5852 5848 5844 5837 5839 5830 5813 5805 5801 5795 5793 5794 5793 5790 5787 5782 5778 5775 5775 5777 5776 5779 5780 5781 5782 5779 5776 5776 5777 5775 5774 5771 5768
5784 5782 5767 5762 5747 5739 5737 5760 5823 5840 5844 5848 5856 5862 5861 5857 5857 5853 5850 5842 5832 5825 5816 5813 5809 5801 5796 5785 5780 5784 5784 5782 5779 5777 5776 5777 5779 5781 5783 5783 5783 5780 5780 5782 5779 5778 5776 5773 5773
5805 5791 5777 5753 5754 5735 5740 5765 5844 5847 5851 5857 5862 5861 5863 5863 5861 5857 5846 5839 5833 5827 5822 5821 5819 5824 5813 5797 5786 5780 5780 5783 5777 5778 5777 5776 5778 5782 5785 5784 5784 5782 5782 5781 5781 5779 5776 5773 5774